Location: �chenoz-la-M�line
(47.6009°N, 6.1354°E)
Time: 12:06:10
(UTC+00:00)

Gbstr 26 Del rocket - Pass Details

Date: 27 January 2021
Orbit: 492 x 1264 km, 51.8° (Epoch: 03 March)

Event Time Altitude Azimuth Distance (km) Brightness Sun altitude
Exits shadow 04:13:41 56° 207° (SSW) 1,379 4.5 -29.3°
Maximum altitude 04:15:21 72° 147° (SSE) 1,255 4.5 -29.0°
Drops below altitude 10° 04:23:26 10° 66° (ENE) 3,249 7.6 -27.7°
Sets 04:26:21 0° 64° (ENE) 4,224 8.3 -27.2°
